AE7VB Weather Reports


time (UTC)temp
F
wind
direction
speed
knots
gust
knots
rain 1hr
in
rain 24hr
in
rain mn
in
humidity
%
barometer
mb
20260504214018 73 12 1.7 3.5 0.00 0.00 0.00 40 1013.7
20260504213017 74 326 0.9 3.5 0.00 0.00 0.00 39 1013.8
20260504212016 74 310 1.7 8.7 0.00 0.00 0.00 40 1013.8
20260504211015 73 64 1.7 8.7 0.00 0.00 0.00 43 1013.8
20260504210014 73 17 1.7 2.6 0.00 0.00 0.00 43 1013.8
20260504205013 73 118 1.7 3.5 0.00 0.00 0.00 45 1013.9
20260504204011 74 17 0.9 3.5 0.00 0.00 0.00 42 1014.3
20260504203010 74 33 0.9 2.6 0.00 0.00 0.00 44 1014.3
20260504202009 74 15 0.9 3.5 0.00 0.00 0.00 40 1014.3
20260504201008 73 31 0.9 3.5 0.00 0.00 0.00 41 1014.3
20260504200007 73 7 1.7 3.5 0.00 0.00 0.00 45 1014.3
20260504195006 73 56 0.9 4.3 0.00 0.00 0.00 44 1014.2
20260504194006 72 13 1.7 7.0 0.00 0.00 0.00 42 1014.2
20260504193004 72 310 1.7 7.0 0.00 0.00 0.00 43 1014.2
20260504191932 72 329 0.9 5.2 0.00 0.00 0.00 48 1014.3
20260504190932 72 271 2.6 5.2 0.00 0.00 0.00 44 1014.2
20260504185930 71 70 0.9 3.5 0.00 0.00 0.00 45 1014.4
20260504184930 71 70 0.9 3.5 0.00 0.00 0.00 43 1014.4
20260504183929 71 41 0.9 3.5 0.00 0.00 0.00 45 1014.4
20260504182928 71 18 0.9 3.5 0.00 0.00 0.00 43 1014.4
20260504181927 71 54 0.9 5.2 0.00 0.00 0.00 46 1014.4
20260504180926 71 324 1.7 5.2 0.00 0.00 0.00 46 1014.4
20260504175925 71 19 1.7 3.5 0.00 0.00 0.00 45 1014.7
20260504174925 70 41 0.9 2.6 0.00 0.00 0.00 46 1014.6
20260504173923 69 22 0.9 3.5 0.00 0.00 0.00 45 1014.5
20260504172922 69 11 1.7 3.5 0.00 0.00 0.00 45 1014.5
20260504171921 68 14 1.7 3.5 0.00 0.00 0.00 48 1014.4
20260504170920 67 18 0.9 3.5 0.00 0.00 0.00 47 1014.3
20260504150631 59 286 0.9 1.7 0.00 0.00 0.00 50 1015.6
20260504140523 51 234 1.7 3.5 0.00 0.00 0.00 66 1015.3
20260504130446 46 155 0.0 1.7 0.00 0.00 0.00 69 1014.6
20260504110402 48 157 0.0 1.7 0.00 0.00 0.00 63 1014.9
20260504100120 50 157 0.9 1.7 0.00 0.00 0.00 58 1015.2
20260504090114 50 156 1.7 2.6 0.00 0.00 0.00 58 1015.6
20260504081006 51 159 0.9 1.7 0.00 0.00 0.00 57 1015.8
20260504050741 52 192 0.0 2.6 0.00 0.00 0.00 58 1015.6
20260504045741 53 190 0.9 2.6 0.00 0.00 0.00 58 1015.8
20260504044739 53 190 0.9 3.5 0.00 0.00 0.00 58 1015.7
20260504043738 53 190 0.9 3.5 0.00 0.00 0.00 59 1015.3
20260504042738 53 219 1.7 2.6 0.00 0.00 0.00 60 1015.3
20260504041736 54 223 0.9 3.5 0.00 0.00 0.00 60 1015.3
20260504040704 54 229 1.7 3.5 0.00 0.00 0.00 60 1015.4
20260504035703 56 303 0.9 1.7 0.00 0.00 0.00 59 1015.5
20260504034702 56 303 0.9 1.7 0.00 0.00 0.00 58 1015.6
20260504033700 57 304 0.9 1.7 0.00 0.00 0.00 58 1015.6
20260504032659 59 304 0.9 1.7 0.00 0.00 0.00 56 1015.8
20260504031659 62 321 0.9 1.7 0.00 0.00 0.00 52 1016.1
20260504030657 64 321 0.9 1.7 0.00 0.00 0.00 48 1016.0
20260504025657 66 321 0.9 1.7 0.00 0.00 0.00 43 1016.1
20260504024656 67 321 0.0 0.9 0.00 0.00 0.00 41 1016.1
20260504023655 68 321 0.0 1.7 0.00 0.00 0.00 41 1016.2
20260504022654 69 321 0.0 1.7 0.00 0.00 0.00 39 1016.2
20260504021653 69 321 0.9 1.7 0.00 0.00 0.00 37 1016.0
20260504020621 70 323 0.0 0.9 0.00 0.00 0.00 37 1015.9
20260504015620 70 336 0.9 1.7 0.00 0.00 0.00 37 1015.9
20260504014619 71 345 0.9 4.3 0.00 0.00 0.00 35 1016.1
20260504013618 71 326 1.7 4.3 0.00 0.00 0.00 36 1016.1
20260504012616 72 326 0.9 3.5 0.00 0.00 0.00 34 1015.9
20260504011545 72 328 0.9 7.0 0.00 0.00 0.00 32 1015.7
20260504010544 72 7 0.9 7.0 0.00 0.00 0.00 33 1015.7
20260504005512 72 10 0.9 5.2 0.00 0.00 0.00 34 1016.0
20260504004511 72 7 1.7 3.5 0.00 0.00 0.00 34 1016.0
20260504003510 72 8 1.7 2.6 0.00 0.00 0.00 34 1016.0
20260504002508 72 13 1.7 2.6 0.00 0.00 0.00 33 1016.0
20260504001508 72 11 1.7 4.3 0.00 0.00 0.00 32 1016.1
20260504000436 72 5 1.7 3.5 0.00 0.00 0.00 33 1016.1
20260503235301 72 21 1.7 7.8 0.00 0.00 0.00 34 1016.4
20260503234300 72 20 4.3 7.8 0.00 0.00 0.00 38 1016.2
20260503233228 72 29 0.9 3.5 0.00 0.00 0.00 39 1016.7
20260503232226 73 23 0.9 3.5 0.00 0.00 0.00 36 1016.4
20260503231225 73 33 0.9 3.5 0.00 0.00 0.00 36 1016.7
20260503230224 74 10 0.9 6.1 0.00 0.00 0.00 37 1016.8
20260503225223 74 11 1.7 6.1 0.00 0.00 0.00 36 1016.9
20260503224222 74 280 1.7 6.1 0.00 0.00 0.00 33 1017.3
20260503223221 73 288 1.7 6.1 0.00 0.00 0.00 37 1017.2
20260503222220 74 318 1.7 6.1 0.00 0.00 0.00 37 1017.4
20260503221218 74 341 0.9 4.3 0.00 0.00 0.00 33 1017.3
20260503220218 74 17 1.7 4.3 0.00 0.00 0.00 34 1017.8
20260503215216 74 315 1.7 3.5 0.00 0.00 0.00 34 1017.8